Location: Macksville High School
(37.9611°N, 99.9654°W)
Time: 01:51:21
(UTC+00:00)

Cosmos 1844 Rocket - Pass Details

Date: 17 January 2021
Orbit: 826 x 843 km, 71.0° (Epoch: 07 March)

Event Time Altitude Azimuth Distance (km) Brightness Sun altitude
Exits shadow 12:44:17 19° 295° (WNW) 1,888 3.9 -13.6°
Maximum altitude 12:46:45 26° 258° (WSW) 1,590 3.6 -13.1°
Drops below altitude 10° 12:51:14 10° 204° (SSW) 2,422 5.0 -12.3°
Sets 12:54:01 0° 192° (SSW) 3,349 5.9 -11.8°
